TimeCST,TemperatureF,Dew PointF,Humidity,Sea Level PressureIn,VisibilityMPH,Wind Direction,Wind SpeedMPH,Gust SpeedMPH,PrecipitationIn,Events,Conditions,WindDirDegrees,DateUTC
12:15 AM,20.1,13.1,74,30.21,10.0,WNW,6.9,-,N/A,,Clear,300,2012-12-21 06:15:00
12:35 AM,19.9,12.9,74,30.21,10.0,WNW,8.1,-,N/A,,Clear,300,2012-12-21 06:35:00
12:55 AM,19.8,12.6,74,30.22,10.0,NW,8.1,-,N/A,,Clear,310,2012-12-21 06:55:00
1:15 AM,19.8,11.7,71,30.23,10.0,WNW,6.9,-,N/A,,Clear,290,2012-12-21 07:15:00
1:35 AM,18.5,11.8,75,30.23,10.0,WNW,5.8,-,N/A,,Clear,290,2012-12-21 07:35:00
1:55 AM,18.1,12.2,78,30.24,10.0,WNW,5.8,-,N/A,,Clear,290,2012-12-21 07:55:00
2:15 AM,18.3,12.9,79,30.24,10.0,WNW,8.1,-,N/A,,Clear,290,2012-12-21 08:15:00
2:35 AM,17.4,12.2,80,30.24,10.0,West,6.9,-,N/A,,Clear,280,2012-12-21 08:35:00
2:55 AM,17.4,12.2,80,30.24,10.0,West,6.9,-,N/A,,Clear,280,2012-12-21 08:55:00
3:15 AM,16.7,11.3,79,30.24,10.0,WNW,5.8,-,N/A,,Clear,290,2012-12-21 09:15:00
3:35 AM,16.7,10.9,78,30.24,10.0,NW,5.8,-,N/A,,Clear,320,2012-12-21 09:35:00
3:55 AM,16.0,10.0,77,30.24,10.0,NW,4.6,-,N/A,,Clear,310,2012-12-21 09:55:00
4:15 AM,16.5,10.9,79,30.24,10.0,NW,3.5,-,N/A,,Clear,320,2012-12-21 10:15:00
4:35 AM,16.7,10.8,77,30.24,10.0,Calm,Calm,-,N/A,,Clear,0,2012-12-21 10:35:00
4:55 AM,14.2,9.0,80,30.24,10.0,WNW,3.5,-,N/A,,Clear,290,2012-12-21 10:55:00
5:15 AM,14.2,9.1,80,30.24,10.0,WNW,5.8,-,N/A,,Clear,290,2012-12-21 11:15:00
5:35 AM,13.8,9.0,81,30.24,10.0,WNW,5.8,-,N/A,,Clear,290,2012-12-21 11:35:00
5:55 AM,12.4,7.9,82,30.25,10.0,WNW,5.8,-,N/A,,Clear,290,2012-12-21 11:55:00
6:15 AM,13.5,8.8,82,30.26,10.0,WNW,5.8,-,N/A,,Clear,290,2012-12-21 12:15:00
6:35 AM,14.2,9.3,81,30.26,10.0,NNW,4.6,-,N/A,,Clear,330,2012-12-21 12:35:00
6:55 AM,15.8,9.5,76,30.26,10.0,Calm,Calm,-,N/A,,Clear,0,2012-12-21 12:55:00
7:15 AM,14.9,9.5,79,30.26,10.0,NW,3.5,-,N/A,,Clear,320,2012-12-21 13:15:00
7:35 AM,14.5,9.3,80,30.27,10.0,NNW,4.6,-,N/A,,Clear,340,2012-12-21 13:35:00
7:55 AM,13.6,8.2,79,30.28,10.0,WNW,3.5,-,N/A,,Clear,300,2012-12-21 13:55:00
8:15 AM,14.2,9.0,80,30.28,10.0,Calm,Calm,-,N/A,,Clear,0,2012-12-21 14:15:00
8:35 AM,15.1,9.0,77,30.30,10.0,Calm,Calm,-,N/A,,Clear,0,2012-12-21 14:35:00
8:55 AM,14.9,9.3,79,30.30,10.0,Calm,Calm,-,N/A,,Clear,0,2012-12-21 14:55:00
9:15 AM,16.9,9.7,73,30.31,10.0,Calm,Calm,-,N/A,,Clear,0,2012-12-21 15:15:00
9:35 AM,17.8,10.2,72,30.31,10.0,Calm,Calm,-,N/A,,Clear,0,2012-12-21 15:35:00
9:55 AM,18.5,10.8,72,30.32,10.0,Calm,Calm,-,N/A,,Clear,0,2012-12-21 15:55:00
10:15 AM,19.0,10.9,71,30.33,10.0,Calm,Calm,-,N/A,,Clear,0,2012-12-21 16:15:00
10:35 AM,20.1,11.3,69,30.32,10.0,Calm,Calm,-,N/A,,Clear,0,2012-12-21 16:35:00
10:55 AM,21.0,12.4,69,30.33,10.0,Calm,Calm,-,N/A,,Clear,0,2012-12-21 16:55:00
11:15 AM,22.8,12.7,65,30.31,10.0,Calm,Calm,-,N/A,,Clear,0,2012-12-21 17:15:00
11:35 AM,23.5,13.8,66,30.30,10.0,Calm,Calm,-,N/A,,Clear,0,2012-12-21 17:35:00
11:55 AM,24.3,15.1,68,30.30,10.0,East,3.5,-,N/A,,Clear,100,2012-12-21 17:55:00
12:15 PM,25.7,16.3,68,30.29,10.0,Calm,Calm,-,N/A,,Clear,0,2012-12-21 18:15:00
12:35 PM,27.1,18.0,68,30.28,10.0,Calm,Calm,-,N/A,,Clear,0,2012-12-21 18:35:00
12:55 PM,28.8,17.8,64,30.28,10.0,SSE,4.6,-,N/A,,Clear,150,2012-12-21 18:55:00
1:15 PM,29.3,15.3,56,30.28,10.0,Calm,Calm,-,N/A,,Clear,0,2012-12-21 19:15:00
1:35 PM,29.8,17.4,60,30.27,10.0,SSE,3.5,-,N/A,,Clear,160,2012-12-21 19:35:00
1:55 PM,30.2,17.2,59,30.26,10.0,Calm,Calm,-,N/A,,Clear,0,2012-12-21 19:55:00
2:15 PM,30.6,18.5,61,30.25,10.0,SSE,3.5,-,N/A,,Clear,150,2012-12-21 20:15:00
2:35 PM,31.1,18.9,61,30.25,10.0,ESE,3.5,-,N/A,,Clear,120,2012-12-21 20:35:00
2:55 PM,31.1,19.9,63,30.25,10.0,ESE,4.6,-,N/A,,Clear,120,2012-12-21 20:55:00
3:15 PM,31.1,19.2,61,30.24,10.0,SE,4.6,-,N/A,,Clear,140,2012-12-21 21:15:00
3:35 PM,31.5,18.5,59,30.24,10.0,SE,5.8,-,N/A,,Clear,130,2012-12-21 21:35:00
3:55 PM,31.5,17.1,55,30.24,10.0,SE,8.1,-,N/A,,Clear,130,2012-12-21 21:55:00
4:15 PM,30.9,18.1,59,30.24,10.0,SE,5.8,-,N/A,,Clear,140,2012-12-21 22:15:00
4:35 PM,30.2,18.7,62,30.24,10.0,SE,5.8,-,N/A,,Clear,140,2012-12-21 22:35:00
4:55 PM,28.9,19.4,68,30.24,10.0,SE,5.8,-,N/A,,Clear,130,2012-12-21 22:55:00
5:15 PM,28.0,19.9,72,30.23,10.0,ESE,4.6,-,N/A,,Clear,120,2012-12-21 23:15:00
5:35 PM,27.5,20.8,76,30.23,10.0,ESE,4.6,-,N/A,,Clear,120,2012-12-21 23:35:00
5:55 PM,27.3,21.2,78,30.23,10.0,SE,4.6,-,N/A,,Clear,130,2012-12-21 23:55:00
6:15 PM,26.1,20.7,80,30.23,10.0,SE,5.8,-,N/A,,Clear,140,2012-12-22 00:15:00
6:35 PM,25.7,20.1,79,30.23,10.0,SE,5.8,-,N/A,,Clear,130,2012-12-22 00:35:00
6:55 PM,25.7,19.6,78,30.22,10.0,SE,5.8,-,N/A,,Clear,130,2012-12-22 00:55:00
7:15 PM,25.5,19.4,78,30.22,10.0,SE,6.9,-,N/A,,Clear,140,2012-12-22 01:15:00
7:35 PM,24.8,18.9,78,30.22,10.0,SSE,6.9,-,N/A,,Clear,150,2012-12-22 01:35:00
7:55 PM,24.8,18.5,77,30.23,10.0,SE,6.9,-,N/A,,Clear,140,2012-12-22 01:55:00
8:15 PM,24.6,18.5,78,30.22,10.0,SSE,6.9,-,N/A,,Clear,150,2012-12-22 02:15:00
8:35 PM,24.4,18.3,78,30.22,10.0,SE,6.9,-,N/A,,Clear,140,2012-12-22 02:35:00
8:55 PM,24.6,18.3,77,30.21,10.0,SSE,6.9,-,N/A,,Clear,150,2012-12-22 02:55:00
9:15 PM,24.8,18.3,76,30.21,10.0,SSE,8.1,-,N/A,,Clear,150,2012-12-22 03:15:00
9:35 PM,24.4,18.1,77,30.21,10.0,SSE,6.9,-,N/A,,Clear,150,2012-12-22 03:35:00
9:55 PM,24.8,18.0,75,30.20,10.0,SSE,8.1,-,N/A,,Clear,150,2012-12-22 03:55:00
10:15 PM,24.8,18.3,76,30.19,10.0,SSE,8.1,-,N/A,,Clear,150,2012-12-22 04:15:00
10:35 PM,25.5,18.5,75,30.18,10.0,SSE,9.2,-,N/A,,Clear,160,2012-12-22 04:35:00
10:55 PM,25.7,18.7,75,30.18,10.0,SSE,10.4,-,N/A,,Clear,150,2012-12-22 04:55:00
11:15 PM,25.7,18.9,75,30.17,10.0,SSE,10.4,-,N/A,,Clear,160,2012-12-22 05:15:00
11:35 PM,26.2,18.5,73,30.16,10.0,SSE,11.5,-,N/A,,Clear,160,2012-12-22 05:35:00
11:55 PM,26.1,18.5,73,30.16,10.0,SSE,10.4,-,N/A,,Clear,160,2012-12-22 05:55:00